Hourly Data Report for December 07, 2021

NANAIMO A
BRITISH COLUMBIA
Current Station Operator: NAVCAN

49°03'16.000" N
123°52'12.000" W
28.00 m
1025365
YCD

Download Data

Hourly Data (December 2021)
Hourly Data Report for December 7, 2021
TIME
LST
Temp Definition
°C
Dew Point Definition
°C
Rel Hum Definition
%
Precip. Amount Definition
mm

Wind Dir Definition
10's deg

Wind Spd Definition
km/h
Visibility Definition
km
Stn Press Definition
kPa
Hmdx Definition


Wind Chill Definition


Weather Definition


00:00 0.9 0.9 100 LegendMM 1 2 LegendMM 101.31     LegendNANA
01:00 1.1 1.1 100 LegendMM 15 2 LegendMM 101.35     LegendNANA
02:00 1.3 1.3 100 LegendMM 27 5 LegendMM 101.42     LegendNANA
03:00 1.2 1.2 100 LegendMM 24 2 LegendMM 101.42     LegendNANA
04:00 1.3 1.3 100 LegendMM 24 5 LegendMM 101.41     LegendNANA
05:00 1.4 1.4 100 LegendMM 17 3 LegendMM 101.36     LegendNANA
06:00 1.3 1.3 100 LegendMM 26 3 LegendMM 101.38     LegendNANA
07:00 1.4 1.4 100 LegendMM 17 1 LegendMM 101.40     LegendNANA
08:00 1.5 1.5 100 LegendMM 24 3 LegendMM 101.36     LegendNANA
09:00 1.7 1.7 100 LegendMM 25 2 LegendMM 101.36     LegendNANA
10:00 2.1 2.1 100 LegendMM 31 2 LegendMM 101.37     LegendNANA
11:00 2.1 2.1 100 LegendMM 34 3 LegendMM 101.38     LegendNANA
12:00 2.8 2.8 100 LegendMM 26 1 LegendMM 101.32     LegendNANA
13:00 3.0 3.0 100 LegendMM 2 2 LegendMM 101.24     LegendNANA
14:00 3.1 3.1 100 LegendMM 0 1 LegendMM 101.14     LegendNANA
15:00 3.4 3.4 100 LegendMM 31 3 LegendMM 101.05     LegendNANA
16:00 4.8 4.8 100 LegendMM 12 9 LegendMM 100.95     LegendNANA
17:00 4.9 4.9 100 LegendMM 13 7 LegendMM 100.82     LegendNANA
18:00 4.0 4.0 100 LegendMM 24 5 LegendMM 100.73     LegendNANA
19:00 3.7 3.7 100 LegendMM 25 4 LegendMM 100.61     LegendNANA
20:00 3.5 3.5 100 LegendMM 28 3 LegendMM 100.55     LegendNANA
21:00 3.6 3.6 100 LegendMM 28 7 LegendMM 100.44     LegendNANA
22:00 3.8 3.8 100 LegendMM 21 2 LegendMM 100.33     LegendNANA
23:00 3.2 3.2 100 LegendMM 31 2 LegendMM 100.29     LegendNANA

Notes on Data Quality.

Legend

  • E = Estimated
  • M = Missing
  • NA = Not Available*
  • [empty] = Indicates an unobserved value
Date modified: